Location: Boss Branch
(32.3799°N, 97.2508°W)
Time: 20:09:21
(UTC+00:00)

deb Explorer IX - Pass Details

Date: 15 November 2024
Orbit: 488 x 740 km, 38.7° (Epoch: 13 December)

Event Time Altitude Azimuth Distance (km) Brightness Sun altitude
Rises 01:22:50 0° 274° (W) 3,029 ? -24.1°
Reaches altitude 10° 01:25:14 10° 281° (WNW) 2,163 ? -24.6°
Maximum altitude 01:30:07 44° 354° (N) 1,022 ? -25.6°
Enters shadow 01:30:21 44° 1° (N) 1,029 ? -25.7°
